Home   Weather   Vallejo   Past weeks
Flag for USA

Past Weather in Vallejo, California, USA — Yesterday and Last 2 Weeks

Now
66 °F

Sunny.


Feels Like: 66 °F
Forecast: 71 / 60 °F
Wind: 22 mph from South

Location: Napa County Airport

Current Time: Aug 18, 2019 at 6:29:33 pm

Latest Report: Aug 18, 2019 at 5:54 pm


Visibility: 10 mi

Pressure: 29.82 "Hg

Humidity: 75%

Dew Point: 58 °F

Location of VallejoLocation

Past Weather in Vallejo — Graph

°F

Vallejo Temperature Yesterday

Maximum temperature yesterday: 73 °F (at 12:54 pm)
Minimum temperature yesterday: 57 °F (at 4:54 am)
Average temperature yesterday: 63 °F

High & Low Weather Summary for the Past Weeks

 TemperatureHumidityPressure
High99 °F (Aug 14, 3:54 pm)100% (Aug 10, 5:54 am)30.03 "Hg (Aug 10, 5:54 am)
Low51 °F (Aug 18, 3:34 am)19% (Aug 14, 3:54 pm)29.74 "Hg (Aug 17, 6:54 pm)
Average67 °F74%29.89 "Hg
* Reported Aug 3 4:54 pm — Aug 18 4:54 pm, Vallejo. Weather by CustomWeather, © 2019

Note: Actual official high and low records may vary slightly from our data, if they occured in-between our weather recording intervals... More about our weather records

Advertising

Vallejo Weather History for the Previous 24 Hours

Scroll right to see more
 ConditionsComfort  
Time TempWeatherWind HumidityBarometerVisibility
4:54 pm
Sun, Aug 18
69 °FSunny.22 mph70%29.82 "Hg10 mi
3:54 pm72 °FSunny.22 mph61%29.82 "Hg10 mi
2:54 pm74 °FSunny.17 mph57%29.83 "Hg10 mi
1:54 pm74 °FSunny.16 mph56%29.85 "Hg10 mi
12:54 pm73 °FSunny.14 mph53%29.85 "Hg10 mi
11:54 am70 °FSunny.10 mph59%29.86 "Hg10 mi
11:08 am66 °FPassing clouds.6 mph68%29.89 "Hg10 mi
10:54 am67 °FPartly sunny.10 mph66%29.86 "Hg10 mi
9:54 am63 °FOvercast.7 mph75%29.85 "Hg10 mi
8:54 am61 °FOvercast.8 mph81%29.84 "Hg9 mi
8:19 am59 °FOvercast.8 mph87%29.86 "Hg8 mi
7:54 am58 °FPartly sunny.6 mph93%29.83 "Hg10 mi
6:54 am53 °FPartly sunny.5 mph93%29.82 "Hg10 mi
6:02 am52 °FFog.3 mph97%29.83 "Hg6 mi
4:54 am52 °FFog.5 mph93%29.79 "Hg6 mi
3:54 am51 °FFog.3 mph100%29.79 "Hg5 mi
3:34 am51 °FFog.No wind96%29.82 "Hg6 mi
2:54 am54 °FPassing clouds.3 mph93%29.79 "Hg7 mi
1:54 am56 °FClear.8 mph90%29.78 "Hg7 mi
12:54 am56 °FClear.5 mph90%29.78 "Hg8 mi
11:54 pm
Sat, Aug 17
58 °FClear.6 mph90%29.78 "Hg8 mi
10:54 pm60 °FClear.13 mph86%29.78 "Hg8 mi
9:54 pm60 °FClear.15 mph86%29.78 "Hg7 mi
8:54 pm61 °FClear.20 mph87%29.76 "Hg7 mi
7:54 pm62 °FSunny.18 mph83%29.75 "Hg6 mi
6:54 pm64 °FSunny.16 mph78%29.74 "Hg6 mi
Weather by CustomWeather, © 2019

See weather overview